Weather History for Sivas, Turkey

Change the Weather History Date:

Tuesday, March 5, 2013

  Actual Average Record
Temperature  
Mean Temperature 22 °F -  
Max Temperature 31 °F 48 °F - ()
Min Temperature 14 °F 30 °F - ()
Degree Days  
Heating Degree Days 42    
Moisture  
Dew Point 16 °F    
Average Humidity 83    
Maximum Humidity 100    
Minimum Humidity 36    
Precipitation  
Precipitation 0.00 in 0.06 in - ()
Sea Level Pressure  
Sea Level Pressure 30.05 in    
Wind  
Wind Speed 11 mph ()    
Max Wind Speed 23 mph    
Max Gust Speed -    
Visibility 5.8 miles    
Events Fog , Snow    
T = Trace of Precipitation, MM = Missing Value Source: Averaged Metar Reports

Daily Weather History Graph

Daily Weather History Graph

Search for Another Location

Airport:

Trip Planner

Search our weather history database for the weather conditions in past years. The results will help you decide how hot, cold, wet, or windy it might be!

Date:

Astronomy

Mar. 05, 2013 Rise Set
Actual Time 5:59 AM EET 5:28 PM EET
Civil Twilight 5:32 AM EET 5:55 PM EET
Nautical Twilight 5:01 AM EET 6:27 PM EET
Astronomical Twilight 4:30 AM EET 6:58 PM EET
Moon 12:49 AM EET (3/5) 10:47 AM EET (3/5)
Length of Visible Light 12h 23m
Length of Day
11h 29m
Last Quarter, 44% of the Moon is Illuminated
Mar 5
Last Quarter
Mar 11
New
Mar 19
First Quarter
Mar 27
Full
Apr 3
Last Quarter

Hourly Weather History & Observations

Time (EET) Temp. Windchill Dew Point Humidity Pressure Visibility Wind Dir Wind Speed Gust Speed Precip Events Conditions
12:50 AM 19.4 °F 11.5 °F 19.4 °F 100% 29.95 in 6.2 mi North 5.8 mph - N/A   Mostly Cloudy
1:50 AM 21.2 °F 10.1 °F 19.4 °F 93% 29.95 in 6.2 mi NE 10.4 mph - N/A   Mostly Cloudy
2:00 AM 29 °F - 20 °F 60%  in 9 mi North 2.3 mph - -   Partly Cloudy
2:50 AM 23.0 °F 11.7 °F 19.4 °F 86% 29.95 in 6.2 mi NNE 11.5 mph - N/A   Mostly Cloudy
3:50 AM 23.0 °F 17.0 °F 21.2 °F 93% 29.95 in 6.2 mi NW 4.6 mph - N/A   Mostly Cloudy
4:50 AM 23.0 °F 11.1 °F 21.2 °F 93% 29.95 in 6.2 mi North 12.7 mph - N/A   Mostly Cloudy
5:50 AM 23.0 °F 11.7 °F 21.2 °F 93% 29.95 in 6.2 mi North 11.5 mph - N/A   Overcast
6:50 AM 19.4 °F 5.0 °F 17.6 °F 93% 29.98 in 2.5 mi North 16.1 mph - N/A Snow Light Snow
7:50 AM 19.4 °F 6.6 °F 17.6 °F 93% 30.01 in 2.5 mi North 12.7 mph - N/A Snow Light Snow
8:00 AM 26 °F - 15 °F 51%  in 9 mi NNE 9.2 mph - -   Overcast
8:50 AM 19.4 °F 3.6 °F 15.8 °F 86% 30.01 in 3.7 mi North 19.6 mph - N/A Snow Light Snow
9:50 AM 19.4 °F 2.5 °F 15.8 °F 86% 30.04 in 3.7 mi North 23.0 mph - N/A Snow Light Snow
10:50 AM 21.2 °F 5.6 °F 15.8 °F 80% 30.04 in 6.2 mi North 20.7 mph - N/A   Mostly Cloudy
11:50 AM 21.2 °F 4.9 °F 17.6 °F 86% 30.04 in 5.6 mi NNW 23.0 mph - N/A   Mostly Cloudy
12:50 PM 21.2 °F 5.6 °F 15.8 °F 80% 30.04 in 6.2 mi North 20.7 mph - N/A   Mostly Cloudy
1:50 PM 21.2 °F 6.0 °F 17.6 °F 86% 30.04 in 0.4 mi North 19.6 mph - N/A Snow Light Snow
2:00 PM 30 °F - 13 °F 36%  in 9 mi NNW 8.1 mph - -   Mostly Cloudy
2:05 PM 19.4 °F 3.2 °F 15.8 °F 86% 30.04 in 5.0 mi North 20.7 mph - N/A   Mostly Cloudy
2:50 PM 21.2 °F 7.3 °F 15.8 °F 80% 30.04 in 6.2 mi North 16.1 mph - N/A   Mostly Cloudy
3:35 PM 19.4 °F 5.5 °F 17.6 °F 93% 30.06 in - North 15.0 mph - N/A Fog , Snow Light Snow
3:50 PM 19.4 °F 4.5 °F 15.8 °F 86% 30.06 in 5.0 mi North 17.3 mph - N/A Snow Light Snow
4:12 PM 19.4 °F 5.0 °F 14.0 °F 80% 30.06 in 5.0 mi North 16.1 mph - N/A   Mostly Cloudy
4:50 PM 17.6 °F 3.2 °F 14.0 °F 86% 30.06 in 5.0 mi North 15.0 mph - N/A   Mostly Cloudy
5:50 PM 17.6 °F 1.3 °F 12.2 °F 79% 30.09 in 6.2 mi North 19.6 mph - N/A   Mostly Cloudy
6:50 PM 15.8 °F 0.3 °F 12.2 °F 86% 30.12 in 6.2 mi North 16.1 mph - N/A   Mostly Cloudy
7:50 PM 15.8 °F 0.9 °F 12.2 °F 86% 30.12 in 6.2 mi North 15.0 mph - N/A   Scattered Clouds
8:00 PM 24 °F - 13 °F 50%  in 9 mi North 6.9 mph - -   Partly Cloudy
8:50 PM 14.0 °F 0.5 °F 10.4 °F 86% 30.15 in 6.2 mi North 11.5 mph - N/A   Scattered Clouds
9:50 PM 14.0 °F 2.0 °F 10.4 °F 86% 30.18 in 6.2 mi NNW 9.2 mph - N/A   Scattered Clouds
10:50 PM 14.0 °F 1.2 °F 12.2 °F 93% 30.18 in 6.2 mi NNW 10.4 mph - N/A   Scattered Clouds
11:50 PM 14.0 °F -1.4 °F 12.2 °F 93% 30.18 in 6.2 mi North 15.0 mph - N/A   Scattered Clouds